Regional Weather Roundup
Issued by NWS Newport/Morehead, NC

Current Version | Previous Version | Text Only | Print | Product List | Glossary Off
Versions: 1 2 3 4 5 6 7 8 9 10 11 12 13 14 15 16 17 18 19 20 21 22 23 24 25 26 27 28 29 30 31 32 33 34 35 36 37 38 39 40 41 42 43 44 45 46 47 48 49 50
000 ASUS42 KMHX 232322 RWRMHX WEATHER ROUNDUP FOR EASTERN NORTH CAROLINA NATIONAL WEATHER SERVICE NEWPORT/MOREHEAD CITY NC 700 PM EDT TUE SEP 23 2014 NOTE: "FAIR" INDICATES FEW OR NO CLOUDS BELOW 12,000 FEET WITH NO SIGNIFICANT WEATHER AND/OR OBSTRUCTIONS TO VISIBILITY NCZ015>017-031-032-045>047-102-103-240000- NORTH COAST CITY SKY/WX TMP DP RH WIND PRES REMARKS EDENTON CLOUDY 60 56 87 N7 30.27R ELIZABETH CITY CLOUDY 64 55 72 N13 30.26S KITTY HAWK DRIZZLE 66 58 73 NE10G21 30.23S MANTEO CLOUDY 65 58 77 NE15G25 30.24S $$ NCZ045>047-081-094-103-104-240000- CENTRAL COAST CITY SKY/WX TMP DP RH WIND PRES REMARKS FRISCO CLOUDY 68 63 84 NE12G25 30.18R SWANQUARTER N/A 64 N/A N/A N9G17 30.18S $$ NCZ095-097-098-100-101-240000- SOUTHERN COAST CITY SKY/WX TMP DP RH WIND PRES REMARKS BEAUFORT CLOUDY 66 61 84 N18 30.17S CEDAR ISLAND N/A 68 N/A N/A VRB33 30.24S JACKSONVILLE LGT RAIN 61 59 93 N16G23 30.21R NEWPORT NOT AVBL PINEY ISLAND LGT RAIN 68 61 78 N22G30 30.18S WILMINGTON CLOUDY 61 59 93 N12 30.20R $$ NCZ011>013-027>030-043-044-078>080-089-090>093-098-240000- COASTAL PLAIN CITY SKY/WX TMP DP RH WIND PRES REMARKS AHOSKIE CLOUDY 58 53 86 CALM 30.30S HAZE CLINTON DRIZZLE 60 58 95 N5 30.27R ELIZABETHTOWN LGT RAIN 60 59 97 CALM 30.24F GOLDSBORO CLOUDY 60 59 98 CALM 30.24S GREENVILLE CLOUDY 59 55 88 N7 30.27S HAVELOCK LGT RAIN 63 60 90 N14 30.21S KENANSVILLE CLOUDY 59 56 91 N8 30.26R KINSTON CLOUDY 61 57 88 N8 30.26R NEW BERN LGT RAIN 63 58 83 N12 30.24R RICHLANDS CLOUDY 61 55 82 N8 30.23R ROANOKE RAPIDS NOT AVBL ROCKY MOUNT LGT RAIN 60 53 77 N9 30.29S WASHINGTON CLOUDY 59 56 88 N7 30.27R WHITEVILLE LGT RAIN 59 57 91 NE7 30.22R $$ AMZ130-135-150-152-154-156-158-170-250-252-270-ANZ085-086-088-633-658-670-240000- MARINE OBSERVATIONS STATION/POSITION TIME TEMP WIND PRES WAVE SWELL AIR SEA DIR/SP/G HT/PER HT/PER (UTC) (F) (DEG/KT/KT) (MB) (FT/S) (FT/S) CHESAPEAKE LIGHT 2300 65 40/ 19/ 21 1025.6 BUOY 44014 2300 69 75 40/ 17/ 23 1023.6 4/ 7 2/ 9 DUCK 2300 67 73 30/ 21/ 26 1023.5 2E DUCK 2200 N/A 5/ 5 OREGON INLET 2300 68 73 20/ 19/ 26 1022.9 BUOY 44095 2300 74 N/A 6/ 6 20E OREGON INLET NOT AVBL HATTERAS CG NOT AVBL DIAMOND BUOY 2300 72 10/ 27/ 33 1019.8 7/ 7 CAPE LOOKOUT 2300 67 10/ 19/ 22 1021.2 BEAUFORT LAB 2300 66 74 20/ 16/ 23 1021.2 30 SE NEW RIVER 2300 70 81 20/ 27/ 35 1019.3 9/ 7 5 SE WRIGHTSVILL 2300 61 78 20/ 25/ 31 N/A BUOY 41002 2156 78 80 120/ 12/ 12 1018.1 3/ 7 3/ 7 BUOY 41004 2300 72 81 10/ 25/ 31 1017.9 9/ 8 2/16 $$

USA.gov is the U.S. government's official web portal to all federal, state and local government web resources and services.